Boulder Muni, Boulder, CO, CO

3:52 AM MDT on July 22, 2017 (GMT -0600)
Boulder Muni, Boulder, CO

Weather History for KBDU - August, 2013

Change the Weather History Date:

Tuesday, August 20, 2013

  Actual Average Record
Temperature  
Mean Temperature 80 °F -  
Max Temperature 96 °F - 96 °F (2013)
Min Temperature 64 °F - 46 °F (2016)
Degree Days  
Heating Degree Days 0    
Month to date heating degree days  
Cooling Degree Days 15    
Month to date cooling degree days  
Growing Degree Days 30 (Base 50)    
Moisture  
Dew Point 37 °F    
Average Humidity 26    
Maximum Humidity 52    
Minimum Humidity 7    
Precipitation  
Precipitation 0.00 in - 0.01 in (2014)
Sea Level Pressure  
Sea Level Pressure 30.06 in    
Wind  
Wind Speed 2 mph (NNE)    
Max Wind Speed 12 mph    
Max Gust Speed 16 mph    
Visibility 10 miles    
Events      
T = Trace of Precipitation, MM = Missing Value Source: NWS Daily Summary

Daily Weather History Graph

Daily Weather History Graph

Search for Another Location

Airport or City:

Trip Planner

Search our weather history database for the weather conditions in past years. The results will help you decide how hot, cold, wet, or windy it might be!

Date:

Astronomy

Aug. 20, 2013 Rise Set
Actual Time 6:17 AM MDT 7:50 PM MDT
Civil Twilight 5:48 AM MDT 8:18 PM MDT
Nautical Twilight 5:14 AM MDT 8:53 PM MDT
Astronomical Twilight 4:37 AM MDT 9:29 PM MDT
Moon 7:23 PM MDT (8/20) 5:50 AM MDT (8/20)
Length of Visible Light 14h 29m
Length of Day
13h 32m
Full, 100% of the Moon is Illuminated
Aug 20
Full
Aug 20
Full
Aug 28
Last Quarter
Sep 5
New
Sep 12
First Quarter

Hourly Weather History & Observations

Time (MDT) Temp. Dew Point Humidity Pressure Visibility Wind Dir Wind Speed Gust Speed Precip Events Conditions
12:17 AM 78.8 °F 33.8 °F 20% 30.09 in 10.0 mi Calm Calm - N/A   Clear
12:37 AM 77.0 °F 35.6 °F 22% 30.08 in 10.0 mi Calm Calm - N/A   Clear
12:57 AM 68.0 °F 44.6 °F 43% 30.08 in 10.0 mi NE 3.5 mph - N/A   Clear
1:17 AM 68.0 °F 44.6 °F 43% 30.08 in 10.0 mi Calm Calm - N/A   Clear
1:37 AM 68.0 °F 44.6 °F 43% 30.08 in 10.0 mi Calm Calm - N/A   Clear
1:57 AM 71.6 °F 39.2 °F 31% 30.07 in 10.0 mi Calm Calm - N/A   Clear
2:17 AM 66.2 °F 42.8 °F 43% 30.07 in 10.0 mi Calm Calm - N/A   Clear
2:37 AM 68.0 °F 41.0 °F 37% 30.07 in 10.0 mi Calm Calm - N/A   Clear
2:57 AM 68.0 °F 41.0 °F 37% 30.07 in 10.0 mi Calm Calm - N/A   Clear
3:17 AM 68.0 °F 41.0 °F 37% 30.07 in 10.0 mi Calm Calm - N/A   Clear
3:37 AM 66.2 °F 42.8 °F 43% 30.07 in 10.0 mi Calm Calm - N/A   Clear
3:57 AM 64.4 °F 46.4 °F 52% 30.07 in 10.0 mi Calm Calm - N/A   Clear
4:17 AM 64.4 °F 44.6 °F 49% 30.07 in 10.0 mi Calm Calm - N/A   Clear
4:37 AM 66.2 °F 41.0 °F 40% 30.07 in 10.0 mi Calm Calm - N/A   Clear
4:57 AM 64.4 °F 44.6 °F 49% 30.07 in 10.0 mi Calm Calm - N/A   Clear
5:17 AM 64.4 °F 46.4 °F 52% 30.07 in 10.0 mi West 3.5 mph - N/A   Clear
5:37 AM 64.4 °F 42.8 °F 45% 30.07 in 10.0 mi Calm Calm - N/A   Clear
5:57 AM 66.2 °F 39.2 °F 37% 30.07 in 10.0 mi Calm Calm - N/A   Clear
6:17 AM 64.4 °F 42.8 °F 45% 30.07 in 10.0 mi Calm Calm - N/A   Clear
6:37 AM 64.4 °F 44.6 °F 49% 30.07 in 10.0 mi Calm Calm - N/A   Clear
6:57 AM 64.4 °F 41.0 °F 42% 30.08 in 10.0 mi SW 3.5 mph - N/A   Clear
7:17 AM 64.4 °F 42.8 °F 45% 30.08 in 10.0 mi North 3.5 mph - N/A   Clear
7:37 AM 68.0 °F 42.8 °F 40% 30.08 in 10.0 mi Calm Calm - N/A   Clear
7:57 AM 68.0 °F 44.6 °F 43% 30.09 in 10.0 mi North 3.5 mph - N/A   Clear
8:17 AM 69.8 °F 44.6 °F 40% 30.09 in 10.0 mi North 3.5 mph - N/A   Clear
8:37 AM 71.6 °F 46.4 °F 41% 30.09 in 10.0 mi North 4.6 mph - N/A   Clear
8:57 AM 73.4 °F 42.8 °F 33% 30.09 in 10.0 mi Calm Calm - N/A   Clear
9:17 AM 75.2 °F 44.6 °F 34% 30.09 in 10.0 mi ENE 3.5 mph - N/A   Clear
9:37 AM 77.0 °F 44.6 °F 32% 30.09 in 10.0 mi NNE 3.5 mph - N/A   Clear
9:57 AM 78.8 °F 41.0 °F 26% 30.09 in 10.0 mi Calm Calm - N/A   Clear
10:17 AM 80.6 °F 42.8 °F 26% 30.09 in 10.0 mi Calm Calm - N/A   Clear
10:37 AM 82.4 °F 44.6 °F 26% 30.08 in 10.0 mi Calm Calm - N/A   Clear
10:57 AM 86.0 °F 42.8 °F 22% 30.08 in 10.0 mi Calm Calm - N/A   Clear
11:17 AM 87.8 °F 44.6 °F 22% 30.08 in 10.0 mi NE 3.5 mph - N/A   Clear
11:37 AM 89.6 °F 44.6 °F 21% 30.07 in 10.0 mi ENE 3.5 mph - N/A   Clear
11:57 AM 91.4 °F 39.2 °F 16% 30.07 in 10.0 mi ESE 3.5 mph - N/A   Clear
12:17 PM 93.2 °F 35.6 °F 13% 30.06 in 10.0 mi ENE 6.9 mph - N/A   Clear
12:37 PM 95.0 °F 32.0 °F 11% 30.05 in 10.0 mi East 4.6 mph - N/A   Clear
12:57 PM 96.8 °F 24.8 °F 8% 30.05 in 10.0 mi ESE 6.9 mph - N/A   Clear
1:17 PM 96.8 °F 30.2 °F 10% 30.04 in 10.0 mi East 6.9 mph - N/A   Clear
1:37 PM 96.8 °F 26.6 °F 8% 30.04 in 10.0 mi East 5.8 mph - N/A   Clear
1:57 PM 96.8 °F 26.6 °F 8% 30.03 in 10.0 mi East 5.8 mph - N/A   Clear
2:17 PM 96.8 °F 28.4 °F 9% 30.03 in 10.0 mi ESE 4.6 mph - N/A   Clear
2:37 PM 96.8 °F 26.6 °F 8% 30.03 in 10.0 mi East 4.6 mph - N/A   Clear
2:57 PM 96.8 °F 24.8 °F 8% 30.02 in 10.0 mi East 6.9 mph - N/A   Clear
3:17 PM 96.8 °F 24.8 °F 8% 30.02 in 10.0 mi NNE 3.5 mph - N/A   Clear
3:37 PM 96.8 °F 23.0 °F 7% 30.01 in 10.0 mi Calm Calm - N/A   Clear
3:57 PM 95.0 °F 26.6 °F 9% 30.01 in 10.0 mi Calm Calm - N/A   Clear
4:17 PM 95.0 °F 28.4 °F 9% 30.01 in 10.0 mi NE 3.5 mph - N/A   Clear
4:37 PM 95.0 °F 23.0 °F 8% 30.01 in 10.0 mi NNE 4.6 mph - N/A   Clear
4:57 PM 91.4 °F 32.0 °F 12% 30.01 in 10.0 mi North 4.6 mph - N/A   Clear
5:17 PM 89.6 °F 35.6 °F 15% 30.01 in 10.0 mi NW 4.6 mph - N/A   Clear
5:37 PM 89.6 °F 32.0 °F 13% 30.01 in 10.0 mi NW 6.9 mph - N/A   Clear
5:57 PM 87.8 °F 30.2 °F 13% 30.01 in 10.0 mi NW 5.8 mph - N/A   Clear
6:17 PM 86.0 °F 32.0 °F 14% 30.02 in 10.0 mi NW 3.5 mph - N/A   Clear
6:37 PM 84.2 °F 37.4 °F 19% 30.03 in 10.0 mi North 8.1 mph - N/A   Clear
6:57 PM 86.0 °F 33.8 °F 15% 30.03 in 10.0 mi NNE 8.1 mph - N/A   Scattered Clouds
7:17 PM 84.2 °F 33.8 °F 16% 30.04 in 10.0 mi NNE 11.5 mph - N/A   Scattered Clouds
7:37 PM 84.2 °F 33.8 °F 16% 30.04 in 10.0 mi North 10.4 mph - N/A   Scattered Clouds
7:57 PM 82.4 °F 33.8 °F 17% 30.05 in 10.0 mi NNE 11.5 mph 16.1 mph N/A   Clear
8:17 PM 82.4 °F 35.6 °F 19% 30.07 in 10.0 mi NNE 5.8 mph - N/A   Clear
8:37 PM 82.4 °F 35.6 °F 19% 30.08 in 10.0 mi North 4.6 mph - N/A   Clear
8:57 PM 80.6 °F 37.4 °F 21% 30.08 in 10.0 mi West 8.1 mph - N/A   Clear
9:17 PM 78.8 °F 39.2 °F 24% 30.09 in 10.0 mi West 4.6 mph - N/A   Clear
9:37 PM 78.8 °F 39.2 °F 24% 30.10 in 10.0 mi West 4.6 mph - N/A   Clear
9:57 PM 77.0 °F 37.4 °F 24% 30.09 in 10.0 mi WSW 4.6 mph - N/A   Clear
10:17 PM 77.0 °F 37.4 °F 24% 30.10 in 10.0 mi Calm Calm - N/A   Clear
10:37 PM 78.8 °F 35.6 °F 21% 30.10 in 10.0 mi West 5.8 mph - N/A   Clear
10:57 PM 77.0 °F 37.4 °F 24% 30.09 in 10.0 mi WSW 5.8 mph - N/A   Clear
11:17 PM 78.8 °F 35.6 °F 21% 30.08 in 10.0 mi WSW 5.8 mph - N/A   Clear
11:37 PM 78.8 °F 33.8 °F 20% 30.08 in 10.0 mi WSW 6.9 mph - N/A   Clear
11:57 PM 78.8 °F 33.8 °F 20% 30.08 in 10.0 mi WSW 6.9 mph - N/A   Clear